Regional Weather Roundup
Issued by NWS State College, PA

Home | Current Version | Previous Version | Graphics & Text | Print | Product List | Glossary Off
Versions: 1 2 3 4 5 6 7 8 9 10 11 12 13 14 15 16 17 18 19 20 21 22 23 24 25 26 27 28 29 30 31 32 33 34 35 36 37 38 39 40 41 42 43 44 45 46 47 48 49 50

000
ASUS41 KCTP 250103
RWRCTP

REGIONAL WEATHER ROUNDUP
NATIONAL WEATHER SERVICE STATE COLLEGE PA
900 PM EDT MON APR 24 2017

Note: "fair" indicates few or no clouds below 12,000 feet with no
significant weather and/or obstructions to visibility.

* = STATION THAT DOES NOT REPORT PRECIPITATION /E.G. RAIN...SNOW...ETC/
    THUNDER OR FOG.

PAZ002>004-007>009-013>016-020>023-029>032-250200-
WESTERN PENNSYLVANIA

CITY           SKY/WX    TMP DP  RH WIND       PRES   REMARKS
ERIE           CLEAR     50  42  74 NE5       29.99R
MEADVILLE      MOCLDY    61  35  37 SE8       29.98R
FRANKLIN*      MOCLDY    57  36  44 SE13      30.01S
NEW CASTLE     CLOUDY    58  43  57 SE7       29.99S
BEAVER COUNTY  LGT RAIN  54  45  71 SE9G17    29.98F
BUTLER*        CLOUDY    54  45  71 E8        30.01S
PITTSBURGH INT CLOUDY    54  46  74 E12       29.98S
PITTSBURGH     CLOUDY    53  43  68 E9        29.98S
INDIANA*       CLOUDY    52  46  82 E8G15     30.04S
LATROBE        CLOUDY    54  41  62 NE7       30.00S
WASHINGTON CO* CLOUDY    52  45  76 E6        29.99R
$$

PAZ004>006-010>012-017>019-024>028-033>037-041-042-045-046-049>053-250200-
CENTRAL PENNSYLVANIA

CITY           SKY/WX    TMP DP  RH WIND       PRES   REMARKS
BRADFORD       CLOUDY    59  32  36 SE12G29   30.04R
DUBOIS         CLOUDY    56  36  47 SE10G28   30.02S
CLEARFIELD     LGT RAIN  54  42  64 SE5       30.07R
JOHNSTOWN      CLOUDY    49  40  71 E12G23    30.01S
ALTOONA        LGT RAIN  51  44  77 E9        30.07R
STATE COLLEGE  DRIZZLE   54  39  58 SE7       30.07R
WILLIAMSPORT   LGT RAIN  60  41  49 E9        30.07R
SELINSGROVE    CLOUDY    55  45  68 SE5       30.09R
FT INDIANTOWN  CLOUDY    52  45  76 NE6       30.08S
CAPITAL CITY   CLOUDY    54  44  69 E6        30.07S
HARRISBURG     CLOUDY    54  45  71 NE6       30.06S
YORK           CLOUDY    53  47  79 E5        30.05S
$$

PAZ038>040-043-044-047-048-054-055-060>062-067>071-250200-
EASTERN PENNSYLVANIA

CITY           SKY/WX    TMP DP  RH WIND       PRES   REMARKS
SCRANTON       CLOUDY    61  33  35 VRB3      30.09R
MOUNT POCONO   CLOUDY    52  34  50 E9        30.10S
ALLENTOWN      LGT RAIN  55  44  66 E7        30.10R
QUAKERTOWN*    CLOUDY    54  39  58 E7        30.10S
READING        CLOUDY    56  40  55 NE5       30.08R
LANCASTER      CLOUDY    53  43  68 E8        30.07R
COATESVILLE    DRIZZLE   52  43  71 NE8G16    30.08S
POTTSTOWN      CLOUDY    54  35  48 NE6       30.10S
BLUE BELL      CLOUDY    54  36  50 E9        30.10S
DOYLESTOWN     CLOUDY    53  38  56 VRB3      30.09R
WILLOW GROVE   NOT AVBL
NORTH PHILA    CLOUDY    57  38  48 E12       30.11R
PHILADELPHIA   CLOUDY    56  37  49 E15G21    30.08S
$$




USA.gov is the U.S. government's official web portal to all federal, state and local government web resources and services.